Flag for Canada Weather past 2 weeks in Cape Dorset, Nunavut, Canada

Now
46 °F

Light rain. Fog.


Feels Like: 38 °F
Forecast: 39 / 46 °F
Wind: 26 mph from East

Location: Cape Dorset

Current Time: Jul 30, 2015 at 3:01:12 PM

Latest Report: Jul 30, 2015 at 2:00 PM


Visibility: 1 mi

Pressure: 29.58 "Hg

Humidity: 100%

Dew point: 46 °F

Location of Cape DorsetLocation

Historic Weather in Cape Dorset — Graph

°F

Cape Dorset temperature yesterday

Maximum temperature yesterday: 41 °F (at 2:51 PM)
Minimum temperature yesterday: 36 °F (at 12:00 AM)
Average temperature yesterday: 37 °F

Past Weeks' High & Low Weather Summary

 TemperatureHumidityPressure
High59 °F (Jul 23, 8:00 AM)100% (Jul 15, 8:51 PM)30.09 "Hg (Jul 15, 8:51 PM)
Low32 °F (Jul 16, 11:00 PM)47% (Jul 22, 3:00 PM)29.55 "Hg (Jul 16, 6:00 AM)
Average40 °F90%29.87 "Hg
* Reported Jul 15 2:00 PM — Jul 30 2:00 PM, Cape Dorset, Weather by CustomWeather, © 2015

Note: Actual official high and low records may vary slightly from our data, if they occured in-between our weather recording intervals... More about our weather records

Advertising

Cape Dorset weather history for previous 24 hours

 ConditionsComfort  
Time TempWeatherWind HumidityBarometerVisibility
2:00 PM
Thu, Jul 30
46 °FLight rain. Fog.26 mph100%29.58 "Hg1 mi
1:58 PM46 °FLight rain. Fog.25 mph100%29.58 "Hg1 mi
1:00 PM43 °FLight rain. Fog.16 mph100%29.59 "Hg0 mi
12:00 PM41 °FLight rain. Fog.17 mph100%29.62 "Hg0 mi
11:00 AM39 °FDrizzle. Fog.18 mph100%29.63 "Hg0 mi
10:00 AM41 °FDrizzle. Fog.23 mph100%29.64 "Hg0 mi
9:00 AM41 °FDrizzle. Fog.22 mph100%29.65 "Hg0 mi
8:00 AM39 °FDrizzle. Fog.22 mph100%29.67 "Hg0 mi
7:00 AM39 °FDrizzle. Fog.21 mph100%29.67 "Hg0 mi
6:00 AM39 °FFog.16 mph100%29.67 "Hg1 mi
5:04 AM39 °FLight rain. Fog.16 mph100%29.68 "Hg2 mi
4:00 AM39 °FLight rain. Fog.16 mph100%29.69 "Hg0 mi
3:00 AM37 °FLight rain. Fog.16 mph100%29.70 "Hg0 mi
2:00 AM37 °FLight rain. Fog.12 mph100%29.72 "Hg0 mi
1:00 AM36 °FLight rain. Fog.8 mph100%29.73 "Hg0 mi
12:00 AM36 °FLight rain. Fog.8 mph100%29.75 "Hg0 mi
11:04 PM
Wed, Jul 29
36 °FLight rain. Fog.9 mph100%29.76 "Hg0 mi
10:59 PM36 °FLight rain. Fog.10 mph100%29.76 "Hg0 mi
10:00 PM37 °FLight rain. Fog.8 mph100%29.77 "Hg0 mi
9:00 PM37 °FLight rain. Fog.9 mph100%29.77 "Hg0 mi
8:00 PM37 °FLight rain. Fog.7 mph100%29.77 "Hg0 mi
7:00 PM39 °FLight rain. Fog.7 mph100%29.78 "Hg0 mi
6:00 PM39 °FLight rain. Fog.8 mph100%29.78 "Hg0 mi
5:03 PM39 °FFog.8 mph100%29.78 "Hg0 mi
4:00 PM39 °FFog.6 mph100%29.79 "Hg1 mi
3:00 PM41 °FFog.6 mph100%29.78 "Hg1 mi
Weather by CustomWeather, © 2015

See weather overviewHow to use our weather pages